Regional Weather Roundup
Issued by NWS

Home | Current Version | Previous Version | Graphics & Text | Print | Product List | Glossary On
Versions: 1 2 3 4 5 6 7 8 9 10 11 12 13 14 15 16 17 18 19 20 21 22 23 24 25 26 27 28 29 30 31 32 33 34 35 36 37 38 39 40 41 42 43 44 45 46 47 48 49 50
000
ASUS43 KBIS 200610
RWRND

NORTH DAKOTA REGIONAL WEATHER ROUNDUP
NATIONAL WEATHER SERVICE BISMARCK ND
1200 AM CST FRI JAN 20 2017

NOTE: "FAIR" INDICATES FEW OR NO CLOUDS BELOW 12,000 FEET WITH NO
SIGNIFICANT WEATHER AND/OR OBSTRUCTIONS TO VISIBILITY.


NDZ001>003-009>011-017-200700-
NORTHWEST NORTH DAKOTA

CITY           SKY/WX    TMP DP  RH WIND       PRES   REMARKS
WILLISTON      FAIR      14  12  92 CALM      29.43F
6HR MIN TEMP:  14; 6HR MAX TEMP:  27;

MINOT          FAIR      23  19  85 CALM      29.40S
MINOT AFB      CLEAR     17  14  89 CALM      29.39S
$$

NDZ018>021-031>035-040>046-200700-
SOUTHWEST NORTH DAKOTA

CITY           SKY/WX    TMP DP  RH WIND       PRES   REMARKS
BISMARCK       FAIR      12  10  92 NE5       29.47F WCI   4
6HR MIN TEMP:  10; 6HR MAX TEMP:  21;

DICKINSON      FAIR      20  16  84 W10       29.39S WCI   9
GARRISON         N/A     12  10  92 E3        29.42S
6HR MIN TEMP:  12; 6HR MAX TEMP:  24;

HETTINGER ARPT CLOUDY    17  14  88 NW5       29.42S WCI  10
$$

NDZ004>008-012>016-024-026-027-054-200700-
NORTHEAST NORTH DAKOTA

CITY           SKY/WX    TMP DP  RH WIND       PRES   REMARKS
GRAND FORKS    FOG       35  32  88 S10       29.55S VSB 1
GRND FRKS AFB  CLOUDY    34  32  93 S9        29.54S FOG
DEVILS LAKE    LGT SNOW  24  23  96 S15       29.49S FOG     WCI  11
$$

NDZ022-023-025-028>030-036>039-047>053-200700-
SOUTHEAST NORTH DAKOTA

CITY           SKY/WX    TMP DP  RH WIND       PRES   REMARKS
FARGO          CLOUDY    47  36  65 SE14      29.56F HAZE
6HR MIN TEMP:  35; 6HR MAX TEMP:  49;

JAMESTOWN      FOG       33  33 100 SE6       29.49S VSB 1/2
$$





USA.gov is the U.S. government's official web portal to all federal, state and local government web resources and services.